When you browse on this site, cookies collect data to enhance your experience and personalize the content and advertising you see.
Visit our Privacy Policy to learn more. By continuing to use the site, you agree to this use of cookies and data.
  • Em Portugal
  • Lista de países
  • Para 7 dias
  • Temperatura da água
  • Mapa do tempo
  • Widgets de tempo
  • user-avatar
    Iniciar Sessão

    Previsão horária em Jaú

    Hoje, 9 Dezembro, Segunda-feira

    Tempo Temperatura Precipitação Vento Pressão Humidade
    00:00 +23°C° 0 mm 6 m/s 762 mmHg 73%
    01:00 +23°C° 0 mm 6 m/s 762 mmHg 73%
    02:00 +23°C° 0 mm 7 m/s 761 mmHg 72%
    03:00 +23°C° 0 mm 7 m/s 761 mmHg 72%
    04:00 +23°C° 0 mm 7 m/s 762 mmHg 73%
    05:00 +22°C° 0 mm 7 m/s 762 mmHg 75%
    06:00 +22°C° 0 mm 8 m/s 762 mmHg 76%
    07:00 +22°C° 0 mm 7 m/s 763 mmHg 74%
    08:00 +22°C° 0 mm 7 m/s 763 mmHg 73%
    09:00 +23°C° 0 mm 6 m/s 763 mmHg 72%
    10:00 +23°C° 0 mm 6 m/s 763 mmHg 70%
    11:00 +23°C° 0 mm 6 m/s 762 mmHg 69%
    12:00 +23°C° 0 mm 6 m/s 762 mmHg 68%
    13:00 +23°C° 0.1 mm 6 m/s 762 mmHg 68%
    14:00 +23°C° 0.1 mm 6 m/s 761 mmHg 68%
    15:00 +23°C° 0.1 mm 6 m/s 761 mmHg 68%
    16:00 +23°C° 0.1 mm 6 m/s 761 mmHg 69%
    17:00 +23°C° 0.1 mm 6 m/s 762 mmHg 70%
    18:00 +22°C° 0.1 mm 6 m/s 762 mmHg 71%
    19:00 +22°C° 0 mm 6 m/s 762 mmHg 70%
    20:00 +23°C° 0 mm 6 m/s 762 mmHg 70%
    21:00 +23°C° 0 mm 6 m/s 762 mmHg 69%
    22:00 +23°C° 0 mm 6 m/s 762 mmHg 68%
    23:00 +23°C° 0 mm 6 m/s 762 mmHg 68%

    Amanhã, 10 Dezembro, Terça-feira

    Tempo Temperatura Precipitação Vento Pressão Humidade
    00:00 +23°C° 0 mm 6 m/s 762 mmHg 67%
    01:00 +22°C° 0.6 mm 6 m/s 762 mmHg 68%
    02:00 +22°C° 0.6 mm 5 m/s 761 mmHg 69%
    03:00 +22°C° 0.6 mm 5 m/s 761 mmHg 69%
    04:00 +22°C° 0.4 mm 5 m/s 761 mmHg 70%
    05:00 +22°C° 0.4 mm 4 m/s 761 mmHg 71%
    06:00 +22°C° 0.4 mm 4 m/s 762 mmHg 71%
    07:00 +22°C° 0.4 mm 4 m/s 762 mmHg 72%
    08:00 +22°C° 0.4 mm 3 m/s 762 mmHg 72%
    09:00 +23°C° 0.4 mm 2 m/s 762 mmHg 72%
    10:00 +23°C° 0.4 mm 2 m/s 762 mmHg 72%
    11:00 +23°C° 0.4 mm 1 m/s 762 mmHg 72%
    12:00 +23°C° 0.4 mm 1 m/s 761 mmHg 72%
    13:00 +23°C° 0.3 mm 2 m/s 761 mmHg 74%
    14:00 +22°C° 0.3 mm 3 m/s 760 mmHg 77%
    15:00 +22°C° 0.3 mm 3 m/s 760 mmHg 79%
    16:00 +22°C° 0.3 mm 4 m/s 760 mmHg 80%
    17:00 +21°C° 0.3 mm 4 m/s 760 mmHg 80%
    18:00 +21°C° 0.3 mm 5 m/s 761 mmHg 81%
    19:00 +21°C° 0.3 mm 5 m/s 761 mmHg 82%
    20:00 +22°C° 0.3 mm 5 m/s 761 mmHg 83%
    21:00 +22°C° 0.3 mm 5 m/s 760 mmHg 84%
    22:00 +22°C° 0.2 mm 5 m/s 760 mmHg 84%
    23:00 +22°C° 0.2 mm 5 m/s 760 mmHg 85%

    Depois de amanhã, 11 Dezembro, Quarta-feira

    Tempo Temperatura Precipitação Vento Pressão Humidade
    00:00 +22°C° 0.2 mm 4 m/s 760 mmHg 85%
    01:00 +22°C° 0.4 mm 4 m/s 760 mmHg 85%
    02:00 +22°C° 0.4 mm 3 m/s 760 mmHg 86%
    03:00 +22°C° 0.4 mm 3 m/s 760 mmHg 86%
    04:00 +23°C° 0.1 mm 2 m/s 760 mmHg 85%
    05:00 +23°C° 0.1 mm 1 m/s 760 mmHg 84%
    06:00 +21°C° 0.1 mm 0 m/s 761 mmHg 84%
    07:00 +24°C° 0 mm 1 m/s 761 mmHg 83%
    08:00 +24°C° 0 mm 1 m/s 761 mmHg 83%
    09:00 +24°C° 0 mm 1 m/s 761 mmHg 83%
    10:00 +24°C° 0 mm 2 m/s 761 mmHg 82%
    11:00 +24°C° 0 mm 3 m/s 760 mmHg 81%
    12:00 +24°C° 0 mm 3 m/s 760 mmHg 80%
    13:00 +23°C° 0 mm 4 m/s 760 mmHg 80%
    14:00 +23°C° 0 mm 5 m/s 759 mmHg 81%
    15:00 +23°C° 0 mm 5 m/s 759 mmHg 81%
    16:00 +23°C° 0 mm 6 m/s 759 mmHg 80%
    17:00 +23°C° 0 mm 6 m/s 760 mmHg 79%
    18:00 +23°C° 0 mm 6 m/s 760 mmHg 79%
    19:00 +23°C° 0 mm 6 m/s 760 mmHg 78%
    20:00 +23°C° 0 mm 6 m/s 760 mmHg 77%
    21:00 +23°C° 0 mm 6 m/s 760 mmHg 77%
    22:00 +22°C° 0 mm 6 m/s 760 mmHg 76%
    23:00 +22°C° 0 mm 6 m/s 760 mmHg 75%

    12 Dezembro, Quinta-feira

    Tempo Temperatura Precipitação Vento Pressão Humidade
    00:00 +22°C° 0 mm 6 m/s 760 mmHg 74%
    01:00 +22°C° 0 mm 6 m/s 760 mmHg 74%
    02:00 +22°C° 0 mm 6 m/s 760 mmHg 73%
    03:00 +22°C° 0 mm 6 m/s 760 mmHg 73%
    04:00 +22°C° 0 mm 6 m/s 760 mmHg 72%
    05:00 +22°C° 0 mm 6 m/s 760 mmHg 72%
    06:00 +22°C° 0 mm 5 m/s 760 mmHg 72%
    07:00 +22°C° 0 mm 5 m/s 761 mmHg 69%
    08:00 +22°C° 0 mm 5 m/s 761 mmHg 67%
    09:00 +23°C° 0 mm 4 m/s 761 mmHg 65%
    10:00 +23°C° 0 mm 4 m/s 760 mmHg 64%
    11:00 +23°C° 0 mm 4 m/s 760 mmHg 63%
    12:00 +23°C° 0 mm 4 m/s 759 mmHg 62%
    13:00 +23°C° 0 mm 4 m/s 759 mmHg 62%
    14:00 +23°C° 0 mm 4 m/s 759 mmHg 61%
    15:00 +23°C° 0 mm 4 m/s 758 mmHg 60%
    16:00 +24°C° 0 mm 3 m/s 758 mmHg 61%
    17:00 +24°C° 0 mm 3 m/s 758 mmHg 61%
    18:00 +24°C° 0 mm 3 m/s 759 mmHg 62%
    19:00 +24°C° 0 mm 2 m/s 759 mmHg 60%
    20:00 +24°C° 0 mm 2 m/s 759 mmHg 59%
    21:00 +24°C° 0 mm 1 m/s 759 mmHg 58%
    22:00 +24°C° 0 mm 1 m/s 758 mmHg 58%
    23:00 +24°C° 0 mm 2 m/s 758 mmHg 59%

    13 Dezembro, Sexta-feira

    Tempo Temperatura Precipitação Vento Pressão Humidade
    00:00 +23°C° 0 mm 2 m/s 758 mmHg 60%
    01:00 +22°C° 0 mm 3 m/s 757 mmHg 62%
    02:00 +22°C° 0 mm 4 m/s 756 mmHg 63%
    03:00 +22°C° 0 mm 5 m/s 756 mmHg 65%
    04:00 +22°C° 0.1 mm 5 m/s 756 mmHg 65%
    05:00 +22°C° 0.1 mm 4 m/s 756 mmHg 64%
    06:00 +22°C° 0.1 mm 4 m/s 757 mmHg 64%
    07:00 +22°C° 0.4 mm 4 m/s 757 mmHg 66%
    08:00 +22°C° 0.4 mm 4 m/s 758 mmHg 68%
    09:00 +22°C° 0.4 mm 5 m/s 758 mmHg 70%
    10:00 +22°C° 0.3 mm 5 m/s 758 mmHg 71%
    11:00 +22°C° 0.3 mm 5 m/s 757 mmHg 72%
    12:00 +22°C° 0.3 mm 5 m/s 757 mmHg 74%
    13:00 +23°C° 0.2 mm 5 m/s 757 mmHg 73%
    14:00 +23°C° 0.2 mm 5 m/s 756 mmHg 73%
    15:00 +23°C° 0.2 mm 5 m/s 756 mmHg 73%
    16:00 +23°C° 0.1 mm 5 m/s 756 mmHg 73%
    17:00 +23°C° 0.1 mm 5 m/s 757 mmHg 74%
    18:00 +23°C° 0.1 mm 5 m/s 757 mmHg 75%
    19:00 +23°C° 0 mm 4 m/s 758 mmHg 76%
    20:00 +24°C° 0 mm 3 m/s 758 mmHg 77%
    21:00 +24°C° 0 mm 2 m/s 759 mmHg 78%
    22:00 +24°C° 0 mm 2 m/s 759 mmHg 76%
    23:00 +24°C° 0 mm 3 m/s 759 mmHg 75%

    14 Dezembro, Sábado

    Tempo Temperatura Precipitação Vento Pressão Humidade
    00:00 +23°C° 0 mm 4 m/s 759 mmHg 73%
    01:00 +23°C° 0 mm 5 m/s 759 mmHg 69%
    02:00 +23°C° 0 mm 5 m/s 759 mmHg 64%
    03:00 +23°C° 0 mm 6 m/s 759 mmHg 60%
    04:00 +23°C° 0 mm 6 m/s 760 mmHg 59%
    05:00 +23°C° 0 mm 5 m/s 760 mmHg 59%
    06:00 +22°C° 0 mm 5 m/s 761 mmHg 58%
    07:00 +23°C° 0 mm 5 m/s 761 mmHg 58%
    08:00 +23°C° 0 mm 5 m/s 761 mmHg 57%
    09:00 +23°C° 0 mm 4 m/s 762 mmHg 57%
    10:00 +23°C° 0 mm 4 m/s 761 mmHg 56%
    11:00 +23°C° 0 mm 4 m/s 761 mmHg 55%
    12:00 +24°C° 0 mm 3 m/s 761 mmHg 54%
    13:00 +23°C° 0 mm 4 m/s 761 mmHg 55%
    14:00 +23°C° 0 mm 4 m/s 760 mmHg 56%
    15:00 +23°C° 0 mm 4 m/s 760 mmHg 57%
    16:00 +23°C° 0 mm 4 m/s 760 mmHg 59%
    17:00 +23°C° 0 mm 4 m/s 760 mmHg 60%
    18:00 +23°C° 0 mm 4 m/s 761 mmHg 62%
    19:00 +23°C° 0 mm 4 m/s 761 mmHg 63%
    20:00 +23°C° 0 mm 4 m/s 761 mmHg 63%
    21:00 +24°C° 0 mm 3 m/s 762 mmHg 64%
    22:00 +24°C° 0 mm 3 m/s 761 mmHg 64%
    23:00 +23°C° 0 mm 4 m/s 761 mmHg 64%
    Mostrar mais